TimeHST,TemperatureF,Dew PointF,Humidity,Sea Level PressureIn,VisibilityMPH,Wind Direction,Wind SpeedMPH,Gust SpeedMPH,PrecipitationIn,Events,Conditions,WindDirDegrees,DateUTC
12:53 AM,73.0,66.9,81,29.98,10.0,Variable,3.5,-,N/A,,Clear,0,2012-11-06 10:53:00
1:53 AM,73.0,66.9,81,29.96,10.0,ENE,4.6,-,N/A,,Clear,60,2012-11-06 11:53:00
2:53 AM,73.0,66.9,81,29.96,10.0,Calm,Calm,-,N/A,,Clear,0,2012-11-06 12:53:00
3:53 AM,71.1,66.0,84,29.95,10.0,ENE,3.5,-,N/A,,Clear,60,2012-11-06 13:53:00
4:53 AM,71.1,66.9,87,29.96,10.0,ENE,4.6,-,N/A,,Partly Cloudy,60,2012-11-06 14:53:00
5:53 AM,73.0,66.9,81,29.96,10.0,ENE,3.5,-,N/A,,Partly Cloudy,60,2012-11-06 15:53:00
6:53 AM,72.0,68.0,87,29.98,10.0,ENE,4.6,-,0.00,,Scattered Clouds,60,2012-11-06 16:53:00
7:53 AM,75.9,66.9,74,29.99,10.0,Variable,5.8,-,N/A,,Clear,0,2012-11-06 17:53:00
8:53 AM,77.0,68.0,74,30.00,10.0,Variable,4.6,-,N/A,,Mostly Cloudy,0,2012-11-06 18:53:00
9:53 AM,79.0,66.0,64,30.00,10.0,ENE,8.1,-,N/A,,Clear,60,2012-11-06 19:53:00
10:53 AM,80.1,64.9,60,29.99,10.0,ENE,6.9,-,N/A,,Mostly Cloudy,60,2012-11-06 20:53:00
11:53 AM,82.0,64.9,56,29.96,10.0,ENE,12.7,17.3,N/A,,Mostly Cloudy,70,2012-11-06 21:53:00
12:53 PM,81.0,64.0,56,29.94,10.0,NNE,8.1,-,N/A,,Mostly Cloudy,30,2012-11-06 22:53:00
1:53 PM,82.9,63.0,51,29.92,10.0,Variable,6.9,16.1,N/A,,Scattered Clouds,0,2012-11-06 23:53:00
2:53 PM,82.0,63.0,52,29.91,10.0,Variable,6.9,-,N/A,,Overcast,0,2012-11-07 00:53:00
3:53 PM,82.0,64.0,54,29.92,10.0,Variable,6.9,17.3,N/A,,Partly Cloudy,0,2012-11-07 01:53:00
4:53 PM,77.0,66.0,69,29.94,10.0,ENE,10.4,17.3,N/A,,Mostly Cloudy,70,2012-11-07 02:53:00
5:53 PM,73.9,66.9,79,29.94,10.0,Variable,3.5,-,0.00,,Mostly Cloudy,0,2012-11-07 03:53:00
6:53 PM,73.9,66.9,79,29.97,10.0,Calm,Calm,-,N/A,,Scattered Clouds,0,2012-11-07 04:53:00
7:53 PM,73.0,64.9,76,29.99,10.0,Calm,Calm,-,N/A,,Partly Cloudy,0,2012-11-07 05:53:00
8:53 PM,73.0,64.9,76,30.01,10.0,Variable,3.5,-,N/A,,Partly Cloudy,0,2012-11-07 06:53:00
9:53 PM,73.0,64.9,76,30.01,10.0,Calm,Calm,-,N/A,,Clear,0,2012-11-07 07:53:00
10:53 PM,73.0,64.9,76,30.01,10.0,Calm,Calm,-,N/A,,Mostly Cloudy,0,2012-11-07 08:53:00
11:53 PM,73.0,64.9,76,30.01,10.0,Calm,Calm,-,N/A,,Clear,0,2012-11-07 09:53:00